Time,TemperatureF,DewpointF,PressureIn,WindDirection,WindDirectionDegrees,WindSpeedMPH,WindSpeedGustMPH,Humidity,HourlyPrecipIn,Conditions,Clouds,dailyrainin,SoftwareType,DateUTC
2013-02-28 00:00:00,37.9,6.1,30.33,SW,225,0.0,0.0,26,-99.99,,,-99.99,WSDL version 423,2013-02-28 08:00:00,
2013-02-28 00:05:00,37.6,6.2,30.33,SSW,203,1.0,4.9,29,-99.99,,,-99.99,WSDL version 423,2013-02-28 08:05:00,
2013-02-28 00:10:00,37.4,5.7,30.33,SSW,203,0.0,4.9,26,-99.99,,,-99.99,WSDL version 423,2013-02-28 08:10:00,
2013-02-28 00:15:00,37.3,6.0,30.36,SW,223,1.0,3.6,27,-99.99,,,-99.99,WSDL version 423,2013-02-28 08:15:00,
2013-02-28 00:20:00,37.3,6.1,30.36,WSW,248,0.0,3.6,26,-99.99,,,-99.99,WSDL version 423,2013-02-28 08:20:00,
2013-02-28 00:25:00,37.2,6.1,30.36,WSW,248,0.0,0.0,26,-99.99,,,-99.99,WSDL version 423,2013-02-28 08:25:00,
2013-02-28 00:30:00,37.3,5.9,30.36,WSW,248,0.0,0.0,27,-99.99,,,-99.99,WSDL version 423,2013-02-28 08:30:00,
2013-02-28 00:35:00,37.1,6.2,30.36,WSW,248,0.0,2.2,27,-99.99,,,-99.99,WSDL version 423,2013-02-28 08:35:00,
2013-02-28 00:41:00,37.1,6.0,30.36,SW,225,2.4,4.0,26,-99.99,,,-99.99,WSDL version 423,2013-02-28 08:41:00,
2013-02-28 00:46:00,37.8,5.9,30.33,SSW,203,2.6,4.9,26,-99.99,,,-99.99,WSDL version 423,2013-02-28 08:46:00,
2013-02-28 00:51:00,39.3,7.2,30.33,SW,225,3.6,4.9,26,-99.99,,,-99.99,WSDL version 423,2013-02-28 08:51:00,
2013-02-28 00:56:00,40.9,8.6,30.33,WSW,250,3.4,5.8,26,-99.99,,,-99.99,WSDL version 423,2013-02-28 08:56:00,
2013-02-28 01:01:00,42.1,9.6,30.36,SW,236,3.8,5.8,26,-99.99,,,-99.99,WSDL version 423,2013-02-28 09:01:00,
2013-02-28 01:06:00,42.4,9.9,30.36,SW,236,4.3,5.8,26,-99.99,,,-99.99,WSDL version 423,2013-02-28 09:06:00,
2013-02-28 01:11:00,42.5,10.0,30.36,SW,228,3.3,7.2,26,-99.99,,,-99.99,WSDL version 423,2013-02-28 09:11:00,
2013-02-28 01:16:00,42.4,9.9,30.36,WSW,244,2.4,7.2,26,-99.99,,,-99.99,WSDL version 423,2013-02-28 09:16:00,
2013-02-28 01:21:00,42.2,9.8,30.36,WSW,248,0.0,4.0,26,-99.99,,,-99.99,WSDL version 423,2013-02-28 09:21:00,
2013-02-28 01:27:00,41.1,8.9,30.36,WSW,248,1.1,3.1,26,-99.99,,,-99.99,WSDL version 423,2013-02-28 09:27:00,
2013-02-28 01:32:00,40.2,8.0,30.36,WSW,248,0.0,3.1,26,-99.99,,,-99.99,WSDL version 423,2013-02-28 09:32:00,
2013-02-28 01:37:00,39.4,7.3,30.36,WSW,248,0.0,2.2,26,-99.99,,,-99.99,WSDL version 423,2013-02-28 09:37:00,
2013-02-28 01:42:00,38.4,6.5,30.36,WSW,248,0.0,2.7,26,-99.99,,,-99.99,WSDL version 423,2013-02-28 09:42:00,
2013-02-28 01:47:00,37.7,5.8,30.36,WSW,248,0.0,2.7,26,-99.99,,,-99.99,WSDL version 423,2013-02-28 09:47:00,
2013-02-28 01:52:00,36.8,6.0,30.36,WSW,248,0.0,0.0,27,-99.99,,,-99.99,WSDL version 423,2013-02-28 09:52:00,
2013-02-28 01:57:00,36.1,5.3,30.36,WSW,248,0.0,0.0,27,-99.99,,,-99.99,WSDL version 423,2013-02-28 09:57:00,
2013-02-28 02:02:00,35.5,4.8,30.36,WSW,248,0.0,0.0,27,-99.99,,,-99.99,WSDL version 423,2013-02-28 10:02:00,
2013-02-28 02:07:00,34.9,4.3,30.36,WSW,248,0.0,0.0,27,-99.99,,,-99.99,WSDL version 423,2013-02-28 10:07:00,
2013-02-28 02:12:00,34.5,5.3,30.36,WSW,248,0.0,0.0,30,-99.99,,,-99.99,WSDL version 423,2013-02-28 10:12:00,
2013-02-28 02:17:00,34.1,5.9,30.36,WSW,248,0.0,0.0,30,-99.99,,,-99.99,WSDL version 423,2013-02-28 10:17:00,
2013-02-28 02:22:00,34.2,6.0,30.36,WSW,248,0.0,2.2,30,-99.99,,,-99.99,WSDL version 423,2013-02-28 10:22:00,
2013-02-28 02:27:00,34.2,6.0,30.36,WSW,248,0.0,2.2,30,-99.99,,,-99.99,WSDL version 423,2013-02-28 10:27:00,
2013-02-28 02:32:00,34.0,5.8,30.36,WSW,248,0.0,2.2,30,-99.99,,,-99.99,WSDL version 423,2013-02-28 10:32:00,
2013-02-28 02:37:00,34.1,5.9,30.36,WSW,248,0.0,0.0,30,-99.99,,,-99.99,WSDL version 423,2013-02-28 10:37:00,
2013-02-28 02:42:00,33.9,5.7,30.36,WSW,248,0.0,0.0,30,-99.99,,,-99.99,WSDL version 423,2013-02-28 10:42:00,
2013-02-28 02:47:00,33.8,5.6,30.36,WSW,248,0.0,0.0,30,-99.99,,,-99.99,WSDL version 423,2013-02-28 10:47:00,
2013-02-28 02:52:00,33.6,5.4,30.36,WSW,248,0.0,0.0,30,-99.99,,,-99.99,WSDL version 423,2013-02-28 10:52:00,
2013-02-28 02:57:00,33.4,5.3,30.36,WSW,248,0.0,0.0,30,-99.99,,,-99.99,WSDL version 423,2013-02-28 10:57:00,
2013-02-28 03:02:00,33.5,5.4,30.33,WSW,248,0.0,0.0,30,-99.99,,,-99.99,WSDL version 423,2013-02-28 11:02:00,
2013-02-28 03:07:00,33.9,5.7,30.33,WSW,248,0.0,0.0,30,-99.99,,,-99.99,WSDL version 423,2013-02-28 11:07:00,
2013-02-28 03:12:00,33.9,5.7,30.33,WSW,248,0.0,0.0,30,-99.99,,,-99.99,WSDL version 423,2013-02-28 11:12:00,
2013-02-28 03:17:00,33.6,5.5,30.33,WSW,248,0.0,0.0,30,-99.99,,,-99.99,WSDL version 423,2013-02-28 11:17:00,
2013-02-28 03:22:00,33.2,5.2,30.33,WSW,248,0.0,0.0,31,-99.99,,,-99.99,WSDL version 423,2013-02-28 11:22:00,
2013-02-28 03:27:00,32.9,5.6,30.33,WSW,248,0.0,0.0,31,-99.99,,,-99.99,WSDL version 423,2013-02-28 11:27:00,
2013-02-28 03:32:00,32.6,5.3,30.33,WSW,248,0.0,0.0,31,-99.99,,,-99.99,WSDL version 423,2013-02-28 11:32:00,
2013-02-28 03:37:00,32.5,5.2,30.33,WSW,248,0.0,0.0,31,-99.99,,,-99.99,WSDL version 423,2013-02-28 11:37:00,
2013-02-28 03:43:00,32.3,5.5,30.33,WSW,248,0.0,0.0,31,-99.99,,,-99.99,WSDL version 423,2013-02-28 11:43:00,
2013-02-28 03:48:00,33.3,5.9,30.33,WSW,248,0.0,0.0,31,-99.99,,,-99.99,WSDL version 423,2013-02-28 11:48:00,
2013-02-28 03:53:00,33.5,6.1,30.33,WSW,248,0.0,0.0,31,-99.99,,,-99.99,WSDL version 423,2013-02-28 11:53:00,
2013-02-28 03:58:00,33.9,5.8,30.33,WSW,248,0.0,0.0,30,-99.99,,,-99.99,WSDL version 423,2013-02-28 11:58:00,
2013-02-28 04:03:00,34.3,6.0,30.36,WSW,248,1.0,3.1,30,-99.99,,,-99.99,WSDL version 423,2013-02-28 12:03:00,
2013-02-28 04:08:00,34.7,6.5,30.36,WSW,248,3.1,4.0,30,-99.99,,,-99.99,WSDL version 423,2013-02-28 12:08:00,
2013-02-28 04:13:00,34.9,6.6,30.36,WSW,248,0.0,4.0,30,-99.99,,,-99.99,WSDL version 423,2013-02-28 12:13:00,
2013-02-28 04:18:00,34.3,6.1,30.33,WSW,248,0.0,3.1,30,-99.99,,,-99.99,WSDL version 423,2013-02-28 12:18:00,
2013-02-28 04:23:00,33.7,5.6,30.33,WSW,248,0.0,0.0,31,-99.99,,,-99.99,WSDL version 423,2013-02-28 12:23:00,
2013-02-28 04:28:00,33.4,6.0,30.33,WSW,248,0.0,0.0,31,-99.99,,,-99.99,WSDL version 423,2013-02-28 12:28:00,
2013-02-28 04:33:00,32.9,5.6,30.36,WSW,248,0.0,0.0,31,-99.99,,,-99.99,WSDL version 423,2013-02-28 12:33:00,
2013-02-28 04:38:00,32.5,5.2,30.36,WSW,248,0.0,0.0,31,-99.99,,,-99.99,WSDL version 423,2013-02-28 12:38:00,
2013-02-28 04:43:00,32.3,5.0,30.36,WSW,248,0.0,0.0,31,-99.99,,,-99.99,WSDL version 423,2013-02-28 12:43:00,
2013-02-28 04:48:00,31.8,7.0,30.36,WSW,248,0.0,0.0,31,-99.99,,,-99.99,WSDL version 423,2013-02-28 12:48:00,
2013-02-28 04:53:00,31.7,7.4,30.36,WSW,248,0.0,0.0,31,-99.99,,,-99.99,WSDL version 423,2013-02-28 12:53:00,
2013-02-28 04:58:00,32.0,6.2,30.36,WSW,248,0.0,0.0,31,-99.99,,,-99.99,WSDL version 423,2013-02-28 12:58:00,
2013-02-28 05:03:00,32.2,6.4,30.36,WSW,248,0.0,0.0,31,-99.99,,,-99.99,WSDL version 423,2013-02-28 13:03:00,
2013-02-28 05:08:00,32.0,6.7,30.36,WSW,248,0.0,0.0,31,-99.99,,,-99.99,WSDL version 423,2013-02-28 13:08:00,
2013-02-28 05:13:00,31.8,7.5,30.36,WSW,248,0.0,0.0,31,-99.99,,,-99.99,WSDL version 423,2013-02-28 13:13:00,
2013-02-28 05:18:00,31.4,7.1,30.36,WSW,248,0.0,0.0,31,-99.99,,,-99.99,WSDL version 423,2013-02-28 13:18:00,
2013-02-28 05:23:00,31.4,7.1,30.36,WSW,248,0.0,0.0,31,-99.99,,,-99.99,WSDL version 423,2013-02-28 13:23:00,
2013-02-28 05:28:00,31.7,7.4,30.36,WSW,248,0.0,0.0,31,-99.99,,,-99.99,WSDL version 423,2013-02-28 13:28:00,
2013-02-28 05:33:00,31.7,7.4,30.36,WSW,248,0.0,0.0,31,-99.99,,,-99.99,WSDL version 423,2013-02-28 13:33:00,
2013-02-28 05:38:00,31.0,6.8,30.36,WSW,248,0.0,0.0,31,-99.99,,,-99.99,WSDL version 423,2013-02-28 13:38:00,
2013-02-28 05:43:00,31.5,7.2,30.36,WSW,248,0.0,0.0,31,-99.99,,,-99.99,WSDL version 423,2013-02-28 13:43:00,
2013-02-28 05:48:00,32.1,6.8,30.36,WSW,248,0.0,0.0,31,-99.99,,,-99.99,WSDL version 423,2013-02-28 13:48:00,
2013-02-28 05:53:00,32.1,6.8,30.36,WSW,248,0.0,0.0,31,-99.99,,,-99.99,WSDL version 423,2013-02-28 13:53:00,
2013-02-28 05:58:00,32.3,5.0,30.36,WSW,248,0.0,0.0,31,-99.99,,,-99.99,WSDL version 423,2013-02-28 13:58:00,
2013-02-28 06:03:00,32.0,6.7,30.36,WSW,248,0.0,0.0,31,-99.99,,,-99.99,WSDL version 423,2013-02-28 14:03:00,
2013-02-28 06:08:00,31.5,7.2,30.36,WSW,248,0.0,0.0,31,-99.99,,,-99.99,WSDL version 423,2013-02-28 14:08:00,
2013-02-28 06:13:00,31.5,7.2,30.36,WSW,248,0.0,0.0,31,-99.99,,,-99.99,WSDL version 423,2013-02-28 14:13:00,
2013-02-28 06:18:00,31.4,7.1,30.36,WSW,248,0.0,0.0,31,-99.99,,,-99.99,WSDL version 423,2013-02-28 14:18:00,
2013-02-28 06:23:00,31.4,7.1,30.36,WSW,248,0.0,0.0,31,-99.99,,,-99.99,WSDL version 423,2013-02-28 14:23:00,
2013-02-28 06:29:00,31.3,7.0,30.36,WSW,248,0.0,0.0,31,-99.99,,,-99.99,WSDL version 423,2013-02-28 14:29:00,
2013-02-28 06:34:00,30.7,6.4,30.36,WSW,248,0.0,0.0,31,-99.99,,,-99.99,WSDL version 423,2013-02-28 14:34:00,
2013-02-28 06:39:00,30.4,6.2,30.36,WSW,248,0.0,0.0,31,-99.99,,,-99.99,WSDL version 423,2013-02-28 14:39:00,
2013-02-28 06:45:00,31.1,7.4,30.36,WSW,248,0.0,0.0,32,-99.99,,,-99.99,WSDL version 423,2013-02-28 14:45:00,
2013-02-28 06:50:00,31.9,7.6,30.36,WSW,248,0.0,0.0,32,-99.99,,,-99.99,WSDL version 423,2013-02-28 14:50:00,
2013-02-28 06:55:00,32.4,5.8,30.36,WSW,248,0.0,0.0,32,-99.99,,,-99.99,WSDL version 423,2013-02-28 14:55:00,
2013-02-28 07:00:00,33.0,5.8,30.36,WSW,248,0.0,0.0,31,-99.99,,,-99.99,WSDL version 423,2013-02-28 15:00:00,
2013-02-28 07:05:00,33.7,6.3,30.36,WSW,248,0.0,2.7,31,-99.99,,,-99.99,WSDL version 423,2013-02-28 15:05:00,
2013-02-28 07:10:00,34.5,7.0,30.36,WSW,248,0.0,2.7,31,-99.99,,,-99.99,WSDL version 423,2013-02-28 15:10:00,
2013-02-28 07:15:00,35.3,7.5,30.39,WSW,248,0.0,2.7,30,-99.99,,,-99.99,WSDL version 423,2013-02-28 15:15:00,
2013-02-28 07:20:00,36.3,7.8,30.39,WSW,248,0.0,2.2,30,-99.99,,,-99.99,WSDL version 423,2013-02-28 15:20:00,
2013-02-28 07:25:00,37.0,8.4,30.39,WSW,248,0.0,0.0,30,-99.99,,,-99.99,WSDL version 423,2013-02-28 15:25:00,
2013-02-28 07:30:00,37.9,9.3,30.39,WSW,248,0.0,0.0,30,-99.99,,,-99.99,WSDL version 423,2013-02-28 15:30:00,
2013-02-28 07:35:00,38.9,9.8,30.39,WSW,248,0.0,0.0,29,-99.99,,,-99.99,WSDL version 423,2013-02-28 15:35:00,
2013-02-28 07:40:00,40.2,10.4,30.39,WSW,248,0.0,0.0,29,-99.99,,,-99.99,WSDL version 423,2013-02-28 15:40:00,
2013-02-28 07:45:00,41.4,11.5,30.39,WSW,248,0.0,0.0,29,-99.99,,,-99.99,WSDL version 423,2013-02-28 15:45:00,
2013-02-28 07:50:00,42.5,12.2,30.39,WSW,248,0.0,0.0,28,-99.99,,,-99.99,WSDL version 423,2013-02-28 15:50:00,
2013-02-28 07:55:00,43.8,12.8,30.39,WSW,248,0.5,3.1,28,-99.99,,,-99.99,WSDL version 423,2013-02-28 15:55:00,
2013-02-28 08:00:00,44.4,13.3,30.39,SSE,168,2.6,4.0,28,-99.99,,,-99.99,WSDL version 423,2013-02-28 16:00:00,
2013-02-28 08:05:00,44.6,13.5,30.39,ESE,113,1.9,4.0,28,-99.99,,,-99.99,WSDL version 423,2013-02-28 16:05:00,
2013-02-28 08:10:00,44.9,13.8,30.39,ESE,113,3.3,4.0,28,-99.99,,,-99.99,WSDL version 423,2013-02-28 16:10:00,
2013-02-28 08:15:00,45.2,14.1,30.42,ESE,113,2.9,4.0,28,-99.99,,,-99.99,WSDL version 423,2013-02-28 16:15:00,
2013-02-28 08:20:00,46.0,14.8,30.42,SE,132,0.7,3.6,28,-99.99,,,-99.99,WSDL version 423,2013-02-28 16:20:00,
2013-02-28 08:25:00,46.9,14.7,30.42,SE,135,2.6,3.6,27,-99.99,,,-99.99,WSDL version 423,2013-02-28 16:25:00,
2013-02-28 08:30:00,48.1,15.7,30.42,SE,135,0.0,3.6,27,-99.99,,,-99.99,WSDL version 423,2013-02-28 16:30:00,
2013-02-28 08:35:00,49.2,15.8,30.42,SE,135,0.0,2.7,26,-99.99,,,-99.99,WSDL version 423,2013-02-28 16:35:00,
2013-02-28 08:40:00,50.5,16.9,30.42,SE,135,0.0,2.7,26,-99.99,,,-99.99,WSDL version 423,2013-02-28 16:40:00,
2013-02-28 08:45:00,51.5,17.8,30.42,SE,135,0.0,0.0,26,-99.99,,,-99.99,WSDL version 423,2013-02-28 16:45:00,
2013-02-28 08:50:00,52.6,18.7,30.42,SE,135,0.0,3.6,26,-99.99,,,-99.99,WSDL version 423,2013-02-28 16:50:00,
2013-02-28 08:55:00,51.1,17.4,30.42,NW,312,3.0,4.5,26,-99.99,,,-99.99,WSDL version 423,2013-02-28 16:55:00,
2013-02-28 09:00:00,51.3,17.6,30.42,WNW,293,1.4,4.0,26,-99.99,,,-99.99,WSDL version 423,2013-02-28 17:00:00,
2013-02-28 09:05:00,53.2,18.9,30.42,WNW,293,0.0,3.1,25,-99.99,,,-99.99,WSDL version 423,2013-02-28 17:05:00,
2013-02-28 09:10:00,53.1,18.9,30.42,WNW,293,3.0,4.9,26,-99.99,,,-99.99,WSDL version 423,2013-02-28 17:10:00,
2013-02-28 09:15:00,53.4,18.9,30.42,WNW,293,1.3,4.9,26,-99.99,,,-99.99,WSDL version 423,2013-02-28 17:15:00,
2013-02-28 09:20:00,52.7,18.8,30.42,WNW,303,3.3,4.9,26,-99.99,,,-99.99,WSDL version 423,2013-02-28 17:20:00,
2013-02-28 09:25:00,52.7,18.8,30.42,NW,315,3.2,4.9,26,-99.99,,,-99.99,WSDL version 423,2013-02-28 17:25:00,
2013-02-28 09:30:00,53.2,19.2,30.42,West,278,2.6,4.9,26,-99.99,,,-99.99,WSDL version 423,2013-02-28 17:30:00,
2013-02-28 09:35:00,54.2,18.8,30.42,West,270,2.9,4.5,25,-99.99,,,-99.99,WSDL version 423,2013-02-28 17:35:00,
2013-02-28 09:40:00,54.7,17.7,30.42,West,278,3.0,4.0,23,-99.99,,,-99.99,WSDL version 423,2013-02-28 17:40:00,
2013-02-28 09:45:00,55.4,18.1,30.42,NW,315,1.4,4.9,22,-99.99,,,-99.99,WSDL version 423,2013-02-28 17:45:00,
2013-02-28 09:50:00,56.3,18.6,30.42,NNW,338,1.4,4.9,22,-99.99,,,-99.99,WSDL version 423,2013-02-28 17:50:00,
2013-02-28 09:55:00,56.5,18.1,30.42,NW,315,0.0,3.6,22,-99.99,,,-99.99,WSDL version 423,2013-02-28 17:55:00,
2013-02-28 10:00:00,57.8,19.2,30.42,West,278,0.8,3.6,22,-99.99,,,-99.99,WSDL version 423,2013-02-28 18:00:00,
2013-02-28 10:05:00,58.6,19.9,30.42,WSW,240,1.3,3.6,22,-99.99,,,-99.99,WSDL version 423,2013-02-28 18:05:00,
2013-02-28 10:10:00,59.3,20.5,30.42,SW,225,0.0,3.6,22,-99.99,,,-99.99,WSDL version 423,2013-02-28 18:10:00,
2013-02-28 10:15:00,60.9,21.1,30.42,SW,225,0.0,3.1,21,-99.99,,,-99.99,WSDL version 423,2013-02-28 18:15:00,
2013-02-28 10:20:00,60.4,21.0,30.42,North,11,3.0,4.0,22,-99.99,,,-99.99,WSDL version 423,2013-02-28 18:20:00,
2013-02-28 10:25:00,59.5,20.7,30.42,NW,323,1.5,4.0,22,-99.99,,,-99.99,WSDL version 423,2013-02-28 18:25:00,
2013-02-28 10:30:00,60.0,21.1,30.42,WSW,251,1.5,4.0,22,-99.99,,,-99.99,WSDL version 423,2013-02-28 18:30:00,
2013-02-28 10:35:00,61.7,21.4,30.42,SSE,158,0.0,4.0,21,-99.99,,,-99.99,WSDL version 423,2013-02-28 18:35:00,
2013-02-28 10:41:00,62.0,21.7,30.42,West,276,2.7,4.0,21,-99.99,,,-99.99,WSDL version 423,2013-02-28 18:41:00,
2013-02-28 10:46:00,62.2,20.4,30.39,NW,304,2.7,4.0,19,-99.99,,,-99.99,WSDL version 423,2013-02-28 18:46:00,
2013-02-28 10:51:00,62.5,21.6,30.39,WSW,258,0.0,4.0,21,-99.99,,,-99.99,WSDL version 423,2013-02-28 18:51:00,
2013-02-28 10:56:00,63.9,20.8,30.39,WSW,256,1.0,3.6,18,-99.99,,,-99.99,WSDL version 423,2013-02-28 18:56:00,
2013-02-28 11:01:00,64.0,19.7,30.42,NW,312,0.0,3.6,18,-99.99,,,-99.99,WSDL version 423,2013-02-28 19:01:00,
2013-02-28 11:06:00,64.9,20.4,30.42,NE,53,2.2,4.0,18,-99.99,,,-99.99,WSDL version 423,2013-02-28 19:06:00,
2013-02-28 11:11:00,64.8,20.3,30.42,NE,48,1.2,5.4,18,-99.99,,,-99.99,WSDL version 423,2013-02-28 19:11:00,
2013-02-28 11:16:00,64.0,19.7,30.39,East,98,2.9,5.4,18,-99.99,,,-99.99,WSDL version 423,2013-02-28 19:16:00,
2013-02-28 11:21:00,64.1,19.8,30.39,NNE,14,0.0,4.9,18,-99.99,,,-99.99,WSDL version 423,2013-02-28 19:21:00,
2013-02-28 11:26:00,65.0,20.5,30.39,ENE,60,1.2,3.6,18,-99.99,,,-99.99,WSDL version 423,2013-02-28 19:26:00,
2013-02-28 11:31:00,65.7,20.6,30.39,ENE,68,2.6,4.0,18,-99.99,,,-99.99,WSDL version 423,2013-02-28 19:31:00,
2013-02-28 11:37:00,65.8,21.1,30.39,ENE,68,3.7,5.8,18,-99.99,,,-99.99,WSDL version 423,2013-02-28 19:37:00,
2013-02-28 11:42:00,65.0,20.2,30.39,East,101,0.0,6.7,17,-99.99,,,-99.99,WSDL version 423,2013-02-28 19:42:00,
2013-02-28 11:47:00,65.2,20.7,30.39,WNW,298,1.4,6.7,18,-99.99,,,-99.99,WSDL version 423,2013-02-28 19:47:00,
2013-02-28 11:52:00,65.4,20.6,30.39,NNE,20,4.6,8.1,18,-99.99,,,-99.99,WSDL version 423,2013-02-28 19:52:00,
2013-02-28 11:57:00,64.6,20.1,30.39,NNE,18,4.2,8.1,18,-99.99,,,-99.99,WSDL version 423,2013-02-28 19:57:00,
2013-02-28 12:03:00,64.1,19.8,30.39,NNE,23,3.0,7.6,18,-99.99,,,-99.99,WSDL version 423,2013-02-28 20:03:00,
2013-02-28 12:08:00,64.5,20.1,30.39,NNW,345,4.3,7.2,18,-99.99,,,-99.99,WSDL version 423,2013-02-28 20:08:00,
2013-02-28 12:13:00,65.0,20.5,30.39,ENE,62,4.3,8.3,18,-99.99,,,-99.99,WSDL version 423,2013-02-28 20:13:00,
2013-02-28 12:19:00,66.2,20.6,30.39,ESE,103,3.2,8.3,17,-99.99,,,-99.99,WSDL version 423,2013-02-28 20:19:00,
2013-02-28 12:24:00,66.9,20.7,30.39,ESE,106,1.5,5.8,17,-99.99,,,-99.99,WSDL version 423,2013-02-28 20:24:00,
2013-02-28 12:29:00,66.9,20.7,30.39,SE,143,3.2,5.8,17,-99.99,,,-99.99,WSDL version 423,2013-02-28 20:29:00,
2013-02-28 12:34:00,66.6,20.5,30.39,NE,45,4.9,8.1,17,-99.99,,,-99.99,WSDL version 423,2013-02-28 20:34:00,
2013-02-28 12:39:00,66.2,20.8,30.39,SE,124,3.4,8.1,17,-99.99,,,-99.99,WSDL version 423,2013-02-28 20:39:00,
2013-02-28 12:44:00,67.8,21.4,30.36,NE,50,2.5,5.8,17,-99.99,,,-99.99,WSDL version 423,2013-02-28 20:44:00,
2013-02-28 12:49:00,66.5,20.6,30.36,NNW,338,4.5,6.3,18,-99.99,,,-99.99,WSDL version 423,2013-02-28 20:49:00,
2013-02-28 12:54:00,66.6,20.9,30.36,East,95,3.7,6.7,17,-99.99,,,-99.99,WSDL version 423,2013-02-28 20:54:00,
2013-02-28 12:59:00,67.4,21.1,30.36,NE,56,2.0,8.1,17,-99.99,,,-99.99,WSDL version 423,2013-02-28 20:59:00,
2013-02-28 13:04:00,68.3,21.8,30.36,ENE,60,3.2,8.1,17,-99.99,,,-99.99,WSDL version 423,2013-02-28 21:04:00,
2013-02-28 13:09:00,67.5,21.2,30.36,ENE,70,4.9,8.7,17,-99.99,,,-99.99,WSDL version 423,2013-02-28 21:09:00,
2013-02-28 13:15:00,67.4,21.1,30.36,ENE,65,4.0,8.1,17,-99.99,,,-99.99,WSDL version 423,2013-02-28 21:15:00,
2013-02-28 13:20:00,68.2,21.7,30.36,NNE,16,3.8,6.3,17,-99.99,,,-99.99,WSDL version 423,2013-02-28 21:20:00,
2013-02-28 13:25:00,68.4,21.9,30.36,SSE,163,2.4,6.3,17,-99.99,,,-99.99,WSDL version 423,2013-02-28 21:25:00,
2013-02-28 13:31:00,69.4,22.8,30.36,SW,233,0.0,4.0,17,-99.99,,,-99.99,WSDL version 423,2013-02-28 21:31:00,
2013-02-28 13:36:00,69.9,23.1,30.36,SW,225,0.0,4.0,17,-99.99,,,-99.99,WSDL version 423,2013-02-28 21:36:00,
2013-02-28 13:41:00,69.8,23.1,30.36,NW,304,3.4,6.3,17,-99.99,,,-99.99,WSDL version 423,2013-02-28 21:41:00,
2013-02-28 13:46:00,68.1,21.7,30.36,NNE,30,1.6,6.3,17,-99.99,,,-99.99,WSDL version 423,2013-02-28 21:46:00,
2013-02-28 13:51:00,69.4,22.7,30.36,NE,56,2.2,6.3,17,-99.99,,,-99.99,WSDL version 423,2013-02-28 21:51:00,
2013-02-28 13:56:00,69.9,23.2,30.36,ESE,113,1.9,4.9,17,-99.99,,,-99.99,WSDL version 423,2013-02-28 21:56:00,
2013-02-28 14:01:00,70.0,23.2,30.33,North,10,3.4,5.4,17,-99.99,,,-99.99,WSDL version 423,2013-02-28 22:01:00,
2013-02-28 14:06:00,69.4,22.7,30.33,NE,53,4.4,5.8,17,-99.99,,,-99.99,WSDL version 423,2013-02-28 22:06:00,
2013-02-28 14:11:00,68.8,22.3,30.33,NNW,348,3.4,5.8,17,-99.99,,,-99.99,WSDL version 423,2013-02-28 22:11:00,
2013-02-28 14:16:00,69.3,22.6,30.33,North,8,2.9,5.8,17,-99.99,,,-99.99,WSDL version 423,2013-02-28 22:16:00,
2013-02-28 14:22:00,69.0,22.4,30.33,East,93,3.5,5.8,17,-99.99,,,-99.99,WSDL version 423,2013-02-28 22:22:00,
2013-02-28 14:27:00,70.0,23.2,30.33,SE,138,3.1,5.4,17,-99.99,,,-99.99,WSDL version 423,2013-02-28 22:27:00,
2013-02-28 14:32:00,70.0,23.2,30.33,ESE,113,3.2,5.4,17,-99.99,,,-99.99,WSDL version 423,2013-02-28 22:32:00,
2013-02-28 14:37:00,70.4,23.6,30.33,WSW,250,2.6,5.4,17,-99.99,,,-99.99,WSDL version 423,2013-02-28 22:37:00,
2013-02-28 14:42:00,71.0,24.1,30.33,West,260,1.0,3.6,17,-99.99,,,-99.99,WSDL version 423,2013-02-28 22:42:00,
2013-02-28 14:47:00,70.9,24.0,30.33,SSW,206,4.5,7.2,17,-99.99,,,-99.99,WSDL version 423,2013-02-28 22:47:00,
2013-02-28 14:52:00,70.4,23.6,30.33,West,273,1.4,7.2,17,-99.99,,,-99.99,WSDL version 423,2013-02-28 22:52:00,
2013-02-28 14:57:00,70.6,23.7,30.33,ESE,113,0.2,5.4,17,-99.99,,,-99.99,WSDL version 423,2013-02-28 22:57:00,
2013-02-28 15:02:00,71.7,23.2,30.33,ESE,113,2.0,4.0,16,-99.99,,,-99.99,WSDL version 423,2013-02-28 23:02:00,
2013-02-28 15:07:00,71.0,23.8,30.33,ENE,70,5.0,6.3,17,-99.99,,,-99.99,WSDL version 423,2013-02-28 23:07:00,
2013-02-28 15:12:00,70.1,23.3,30.33,NE,42,3.4,6.3,17,-99.99,,,-99.99,WSDL version 423,2013-02-28 23:12:00,
2013-02-28 15:17:00,69.9,23.1,30.33,NE,53,3.3,5.4,17,-99.99,,,-99.99,WSDL version 423,2013-02-28 23:17:00,
2013-02-28 15:22:00,70.6,23.7,30.33,WNW,293,1.7,4.9,17,-99.99,,,-99.99,WSDL version 423,2013-02-28 23:22:00,
2013-02-28 15:27:00,71.1,24.1,30.33,East,98,2.8,5.4,17,-99.99,,,-99.99,WSDL version 423,2013-02-28 23:27:00,
2013-02-28 15:32:00,70.2,23.4,30.33,NE,38,4.3,7.6,17,-99.99,,,-99.99,WSDL version 423,2013-02-28 23:32:00,
2013-02-28 15:37:00,69.4,22.8,30.33,East,101,1.5,7.6,17,-99.99,,,-99.99,WSDL version 423,2013-02-28 23:37:00,
2013-02-28 15:42:00,70.8,23.6,30.33,ESE,105,0.0,5.8,16,-99.99,,,-99.99,WSDL version 423,2013-02-28 23:42:00,
2013-02-28 15:47:00,70.7,23.8,30.33,NE,56,3.1,6.3,17,-99.99,,,-99.99,WSDL version 423,2013-02-28 23:47:00,
2013-02-28 15:52:00,69.7,23.0,30.33,ENE,78,3.0,6.3,17,-99.99,,,-99.99,WSDL version 423,2013-02-28 23:52:00,
2013-02-28 15:57:00,70.5,23.6,30.33,ENE,68,0.8,6.3,17,-99.99,,,-99.99,WSDL version 423,2013-02-28 23:57:00,
2013-02-28 16:02:00,69.8,23.1,30.33,NE,50,3.0,6.3,17,-99.99,,,-99.99,WSDL version 423,2013-03-01 00:02:00,
2013-02-28 16:07:00,70.1,23.3,30.33,NNE,33,3.0,5.8,17,-99.99,,,-99.99,WSDL version 423,2013-03-01 00:07:00,
2013-02-28 16:12:00,69.4,22.7,30.33,NE,51,4.6,8.1,17,-99.99,,,-99.99,WSDL version 423,2013-03-01 00:12:00,
2013-02-28 16:17:00,69.4,22.7,30.33,NNE,13,0.0,8.1,17,-99.99,,,-99.99,WSDL version 423,2013-03-01 00:17:00,
2013-02-28 16:22:00,69.7,23.0,30.33,East,101,3.5,6.3,17,-99.99,,,-99.99,WSDL version 423,2013-03-01 00:22:00,
2013-02-28 16:27:00,69.5,22.8,30.33,NE,53,2.7,6.3,17,-99.99,,,-99.99,WSDL version 423,2013-03-01 00:27:00,
2013-02-28 16:32:00,69.7,22.9,30.33,NE,34,0.0,4.0,17,-99.99,,,-99.99,WSDL version 423,2013-03-01 00:32:00,
2013-02-28 16:37:00,69.6,22.9,30.33,ENE,75,2.8,4.0,17,-99.99,,,-99.99,WSDL version 423,2013-03-01 00:37:00,
2013-02-28 16:42:00,69.5,22.8,30.33,East,84,3.1,5.4,17,-99.99,,,-99.99,WSDL version 423,2013-03-01 00:42:00,
2013-02-28 16:47:00,68.9,22.3,30.33,NE,56,4.4,7.2,17,-99.99,,,-99.99,WSDL version 423,2013-03-01 00:47:00,
2013-02-28 16:52:00,68.2,21.8,30.33,NE,53,3.7,7.2,17,-99.99,,,-99.99,WSDL version 423,2013-03-01 00:52:00,
2013-02-28 16:57:00,67.8,21.4,30.33,NE,39,4.0,5.8,17,-99.99,,,-99.99,WSDL version 423,2013-03-01 00:57:00,
2013-02-28 17:02:00,67.8,21.4,30.33,ENE,68,1.3,5.8,17,-99.99,,,-99.99,WSDL version 423,2013-03-01 01:02:00,
2013-02-28 17:07:00,67.6,21.3,30.33,NE,34,2.8,5.4,17,-99.99,,,-99.99,WSDL version 423,2013-03-01 01:07:00,
2013-02-28 17:12:00,67.3,21.0,30.33,NE,50,3.9,5.4,17,-99.99,,,-99.99,WSDL version 423,2013-03-01 01:12:00,
2013-02-28 17:17:00,66.9,20.7,30.33,NE,48,2.6,5.4,17,-99.99,,,-99.99,WSDL version 423,2013-03-01 01:17:00,
2013-02-28 17:22:00,66.6,20.5,30.33,NNE,26,3.0,4.9,17,-99.99,,,-99.99,WSDL version 423,2013-03-01 01:22:00,
2013-02-28 17:27:00,66.1,20.7,30.33,NNE,23,3.4,5.4,18,-99.99,,,-99.99,WSDL version 423,2013-03-01 01:27:00,
2013-02-28 17:32:00,65.7,21.1,30.33,NE,37,2.9,5.4,18,-99.99,,,-99.99,WSDL version 423,2013-03-01 01:32:00,
2013-02-28 17:37:00,65.2,20.7,30.33,NNE,23,3.4,4.9,18,-99.99,,,-99.99,WSDL version 423,2013-03-01 01:37:00,
2013-02-28 17:42:00,64.7,20.2,30.33,NNE,23,2.5,4.9,18,-99.99,,,-99.99,WSDL version 423,2013-03-01 01:42:00,
2013-02-28 17:47:00,64.2,19.9,30.36,NNE,23,0.0,3.6,18,-99.99,,,-99.99,WSDL version 423,2013-03-01 01:47:00,
2013-02-28 17:52:00,63.6,19.3,30.36,NNE,23,0.0,2.7,18,-99.99,,,-99.99,WSDL version 423,2013-03-01 01:52:00,
2013-02-28 17:57:00,63.1,18.9,30.36,NNE,23,0.0,0.0,18,-99.99,,,-99.99,WSDL version 423,2013-03-01 01:57:00,
2013-02-28 18:02:00,62.5,18.7,30.36,NNE,23,0.0,0.0,19,-99.99,,,-99.99,WSDL version 423,2013-03-01 02:02:00,
2013-02-28 18:07:00,61.9,19.2,30.36,NNE,23,0.0,0.0,19,-99.99,,,-99.99,WSDL version 423,2013-03-01 02:07:00,
2013-02-28 18:12:00,61.3,18.7,30.36,NNE,23,0.0,0.0,19,-99.99,,,-99.99,WSDL version 423,2013-03-01 02:12:00,
2013-02-28 18:17:00,60.8,18.3,30.36,NNE,23,0.0,0.0,19,-99.99,,,-99.99,WSDL version 423,2013-03-01 02:17:00,
2013-02-28 18:22:00,60.1,17.7,30.36,NNE,23,0.0,0.0,19,-99.99,,,-99.99,WSDL version 423,2013-03-01 02:22:00,
2013-02-28 18:27:00,59.2,17.0,30.36,NNE,23,0.0,0.0,19,-99.99,,,-99.99,WSDL version 423,2013-03-01 02:27:00,
2013-02-28 18:32:00,58.1,16.0,30.36,NNE,23,0.0,0.0,19,-99.99,,,-99.99,WSDL version 423,2013-03-01 02:32:00,
2013-02-28 18:37:00,57.3,15.4,30.36,NNE,23,0.0,0.0,19,-99.99,,,-99.99,WSDL version 423,2013-03-01 02:37:00,
2013-02-28 18:42:00,56.9,16.0,30.36,NNE,23,0.0,0.0,20,-99.99,,,-99.99,WSDL version 423,2013-03-01 02:42:00,
2013-02-28 18:47:00,56.2,15.6,30.36,NNE,23,0.0,0.0,20,-99.99,,,-99.99,WSDL version 423,2013-03-01 02:47:00,
2013-02-28 18:52:00,55.5,15.1,30.36,NNE,23,0.0,0.0,20,-99.99,,,-99.99,WSDL version 423,2013-03-01 02:52:00,
2013-02-28 18:57:00,54.7,14.5,30.36,NNE,23,0.0,0.0,20,-99.99,,,-99.99,WSDL version 423,2013-03-01 02:57:00,
2013-02-28 19:02:00,54.3,14.1,30.36,NNE,23,0.0,0.0,20,-99.99,,,-99.99,WSDL version 423,2013-03-01 03:02:00,
2013-02-28 19:07:00,53.6,13.9,30.36,NNE,23,0.0,0.0,21,-99.99,,,-99.99,WSDL version 423,2013-03-01 03:07:00,
2013-02-28 19:12:00,52.9,14.0,30.36,NNE,23,0.0,0.0,21,-99.99,,,-99.99,WSDL version 423,2013-03-01 03:12:00,
2013-02-28 19:17:00,52.5,13.7,30.36,NNE,23,0.0,0.0,21,-99.99,,,-99.99,WSDL version 423,2013-03-01 03:17:00,
2013-02-28 19:22:00,52.9,14.0,30.36,NNE,23,1.0,2.7,21,-99.99,,,-99.99,WSDL version 423,2013-03-01 03:22:00,
2013-02-28 19:27:00,53.1,14.2,30.36,NNE,23,0.0,2.7,21,-99.99,,,-99.99,WSDL version 423,2013-03-01 03:27:00,
2013-02-28 19:32:00,52.6,13.8,30.36,NNE,23,0.0,2.7,21,-99.99,,,-99.99,WSDL version 423,2013-03-01 03:32:00,
2013-02-28 19:37:00,52.0,13.3,30.36,NNE,23,0.0,2.2,21,-99.99,,,-99.99,WSDL version 423,2013-03-01 03:37:00,
2013-02-28 19:42:00,51.7,13.0,30.36,NNE,23,0.0,2.7,21,-99.99,,,-99.99,WSDL version 423,2013-03-01 03:42:00,
2013-02-28 19:47:00,51.5,12.8,30.36,NNE,23,0.0,2.7,21,-99.99,,,-99.99,WSDL version 423,2013-03-01 03:47:00,
2013-02-28 19:52:00,51.1,12.5,30.36,NNE,23,0.8,3.1,21,-99.99,,,-99.99,WSDL version 423,2013-03-01 03:52:00,
2013-02-28 19:57:00,51.5,12.8,30.36,NNE,23,0.0,3.6,21,-99.99,,,-99.99,WSDL version 423,2013-03-01 03:57:00,
2013-02-28 20:02:00,51.7,13.0,30.36,NNE,23,1.7,4.0,21,-99.99,,,-99.99,WSDL version 423,2013-03-01 04:02:00,
2013-02-28 20:07:00,51.3,12.7,30.36,NNE,23,0.0,4.0,21,-99.99,,,-99.99,WSDL version 423,2013-03-01 04:07:00,
2013-02-28 20:12:00,50.9,12.3,30.36,NNE,23,1.2,3.6,21,-99.99,,,-99.99,WSDL version 423,2013-03-01 04:12:00,
2013-02-28 20:17:00,50.9,12.4,30.36,NNE,23,1.6,3.6,21,-99.99,,,-99.99,WSDL version 423,2013-03-01 04:17:00,
2013-02-28 20:22:00,50.5,12.1,30.36,NNE,23,1.0,3.1,21,-99.99,,,-99.99,WSDL version 423,2013-03-01 04:22:00,
2013-02-28 20:27:00,50.2,11.7,30.36,NNE,23,0.0,2.7,21,-99.99,,,-99.99,WSDL version 423,2013-03-01 04:27:00,
2013-02-28 20:32:00,49.7,11.3,30.39,NNE,23,0.0,0.0,21,-99.99,,,-99.99,WSDL version 423,2013-03-01 04:32:00,
2013-02-28 20:37:00,49.5,11.2,30.39,NNE,23,0.0,0.0,21,-99.99,,,-99.99,WSDL version 423,2013-03-01 04:37:00,
2013-02-28 20:43:00,49.0,10.7,30.39,NNE,23,0.0,0.0,21,-99.99,,,-99.99,WSDL version 423,2013-03-01 04:43:00,
2013-02-28 20:48:00,48.4,10.4,30.39,NNE,23,0.0,0.0,22,-99.99,,,-99.99,WSDL version 423,2013-03-01 04:48:00,
2013-02-28 20:53:00,47.9,10.9,30.39,NNE,23,1.0,2.7,22,-99.99,,,-99.99,WSDL version 423,2013-03-01 04:53:00,
2013-02-28 20:58:00,47.7,10.7,30.39,NNE,23,0.0,2.7,22,-99.99,,,-99.99,WSDL version 423,2013-03-01 04:58:00,
2013-02-28 21:01:00,47.4,10.5,30.39,NNE,23,0.0,2.7,22,-99.99,,,-99.99,WSDL version 423,2013-03-01 05:01:00,
2013-02-28 21:02:00,47.3,10.4,30.39,NNE,23,0.0,2.2,22,-99.99,,,-99.99,WSDL version 423,2013-03-01 05:02:00,
2013-02-28 21:07:00,46.8,10.0,30.39,NNE,23,0.0,2.2,22,-99.99,,,-99.99,WSDL version 423,2013-03-01 05:07:00,
2013-02-28 21:12:00,47.3,10.3,30.39,NNE,23,0.0,2.2,22,-99.99,,,-99.99,WSDL version 423,2013-03-01 05:12:00,
2013-02-28 21:15:00,47.4,10.4,30.39,NNE,23,0.0,2.2,22,-99.99,,,-99.99,WSDL version 423,2013-03-01 05:15:00,
2013-02-28 21:20:00,47.2,10.3,30.39,NNE,23,0.0,2.2,22,-99.99,,,-99.99,WSDL version 423,2013-03-01 05:20:00,
2013-02-28 21:25:00,47.1,10.2,30.39,NNE,23,0.0,0.0,22,-99.99,,,-99.99,WSDL version 423,2013-03-01 05:25:00,
2013-02-28 21:30:00,46.5,9.7,30.39,NNE,23,0.0,3.1,22,-99.99,,,-99.99,WSDL version 423,2013-03-01 05:30:00,
2013-02-28 21:35:00,46.3,9.6,30.39,NNE,23,0.0,3.1,22,-99.99,,,-99.99,WSDL version 423,2013-03-01 05:35:00,
2013-02-28 21:40:00,46.1,9.3,30.39,NNE,23,0.0,0.0,22,-99.99,,,-99.99,WSDL version 423,2013-03-01 05:40:00,
2013-02-28 21:45:00,46.2,9.4,30.39,NNE,23,0.0,0.0,22,-99.99,,,-99.99,WSDL version 423,2013-03-01 05:45:00,
2013-02-28 21:50:00,46.1,9.4,30.39,NNE,23,0.0,0.0,22,-99.99,,,-99.99,WSDL version 423,2013-03-01 05:50:00,
2013-02-28 21:55:00,45.4,8.8,30.39,NNE,23,0.0,0.0,22,-99.99,,,-99.99,WSDL version 423,2013-03-01 05:55:00,
2013-02-28 22:00:00,45.5,11.2,30.39,NNE,23,0.0,0.0,25,-99.99,,,-99.99,WSDL version 423,2013-03-01 06:00:00,
2013-02-28 22:05:00,45.9,10.3,30.39,NNE,23,0.0,0.0,22,-99.99,,,-99.99,WSDL version 423,2013-03-01 06:05:00,
2013-02-28 22:10:00,45.4,10.2,30.39,NNE,23,0.0,0.0,25,-99.99,,,-99.99,WSDL version 423,2013-03-01 06:10:00,
2013-02-28 22:15:00,45.0,11.3,30.39,NNE,23,0.0,0.0,25,-99.99,,,-99.99,WSDL version 423,2013-03-01 06:15:00,
2013-02-28 22:20:00,44.9,11.2,30.39,NNE,23,0.0,0.0,25,-99.99,,,-99.99,WSDL version 423,2013-03-01 06:20:00,
2013-02-28 22:25:00,44.8,11.1,30.39,NNE,23,0.0,0.0,25,-99.99,,,-99.99,WSDL version 423,2013-03-01 06:25:00,
2013-02-28 22:30:00,45.2,11.5,30.39,NNE,23,0.0,0.0,25,-99.99,,,-99.99,WSDL version 423,2013-03-01 06:30:00,
2013-02-28 22:35:00,44.5,10.9,30.39,NNE,23,0.0,0.0,25,-99.99,,,-99.99,WSDL version 423,2013-03-01 06:35:00,
2013-02-28 22:40:00,44.0,10.4,30.39,NNE,23,0.0,0.0,25,-99.99,,,-99.99,WSDL version 423,2013-03-01 06:40:00,
2013-02-28 22:45:00,43.7,10.1,30.39,NNE,23,0.0,0.0,25,-99.99,,,-99.99,WSDL version 423,2013-03-01 06:45:00,
2013-02-28 22:50:00,43.2,9.7,30.39,NNE,23,0.0,0.0,25,-99.99,,,-99.99,WSDL version 423,2013-03-01 06:50:00,
2013-02-28 22:55:00,43.3,9.8,30.39,NNE,23,0.0,0.0,25,-99.99,,,-99.99,WSDL version 423,2013-03-01 06:55:00,
2013-02-28 23:00:00,43.2,9.7,30.39,NNE,23,0.0,2.7,25,-99.99,,,-99.99,WSDL version 423,2013-03-01 07:00:00,
2013-02-28 23:05:00,43.0,9.6,30.39,NNE,23,0.0,2.7,25,-99.99,,,-99.99,WSDL version 423,2013-03-01 07:05:00,
2013-02-28 23:10:00,42.8,9.4,30.39,NNE,23,2.2,3.6,25,-99.99,,,-99.99,WSDL version 423,2013-03-01 07:10:00,
2013-02-28 23:15:00,43.1,9.7,30.39,NNE,23,2.7,3.6,25,-99.99,,,-99.99,WSDL version 423,2013-03-01 07:15:00,
2013-02-28 23:20:00,43.7,10.2,30.39,NNE,23,2.7,3.1,25,-99.99,,,-99.99,WSDL version 423,2013-03-01 07:20:00,
2013-02-28 23:25:00,44.3,10.7,30.39,NNE,23,0.0,3.1,25,-99.99,,,-99.99,WSDL version 423,2013-03-01 07:25:00,
2013-02-28 23:30:00,44.8,11.1,30.39,NNE,23,0.0,2.2,25,-99.99,,,-99.99,WSDL version 423,2013-03-01 07:30:00,
2013-02-28 23:35:00,45.1,11.4,30.39,NNE,23,0.0,0.0,25,-99.99,,,-99.99,WSDL version 423,2013-03-01 07:35:00,
2013-02-28 23:40:00,44.8,11.1,30.39,NNE,23,0.0,0.0,25,-99.99,,,-99.99,WSDL version 423,2013-03-01 07:40:00,
2013-02-28 23:45:00,44.8,11.1,30.39,NNE,23,0.0,2.2,25,-99.99,,,-99.99,WSDL version 423,2013-03-01 07:45:00,
2013-02-28 23:50:00,45.0,11.3,30.39,NNE,23,0.0,2.2,25,-99.99,,,-99.99,WSDL version 423,2013-03-01 07:50:00,
2013-02-28 23:55:00,44.0,10.4,30.39,NNE,23,0.0,0.0,25,-99.99,,,-99.99,WSDL version 423,2013-03-01 07:55:00,